Back to catalog

FENGYUN 1C DEB

AliveSSO
NORAD 36207·DEBRIS·🇨🇳 China

Launched May 10, 1999 from Taiyuan Satellite Launch Center

Loading…

Next Passes (next 24 hours)

TLE

AgingSource: Space-Track

Epoch: Sep 9, 2026, 11:25 UTC

1 36207U 99025DUG 26252.47588000  .00001756  00000-0  10395-2 0  9991
2 36207  98.5875 127.2942 0139310 281.9197  76.6381 14.04186463637636

Track FENGYUN 1C DEB in real time with AllMySat

Download on the App Store